Temperature
19 20 20 20 19 19 19 19 19 19 19 19 19 19 19 19 19 19 19 19 19 19 19 18 18 18 18 18 18 18 18 18 18 19 19 19 18 18 18 18 18 18 18
20 20 20 20 19 19 19 19 19 19 19 19 19 19 19 19 19 19 19 19 19 19 19 18 18 18 18 18 18 18 18 18 18 18 18 18 18 18 18 18 18 18 18
20 20 20 20 19 19 19 19 19 19 19 19 19 19 19 19 19 19 19 19 18 18 18 18 18 19 18 18 18 18 18 18 18 18 18 18 18 18 18 18 18 18 18
20 20 20 20 19 19 19 19 19 19 19 19 19 19 19 19 19 19 19 18 18 18 18 18 18 18 18 18 18 18 18 18 18 18 18 18 18 18 18 18 18 18 18
20 20 20 20 19 19 19 19 19 19 19 19 19 19 19 19 19 19 19 18 18 18 18 18 18 18 18 18 18 18 18 18 18 18 18 18 18 18 18 18 18 18 18
20 20 20 20 19 19 19 19 19 19 19 19 19 19 19 19 19 19 19 19 18 18 18 18 18 18 18 18 18 18 18 18 18 18 18 18 18 18 18 18 18 18 18
20 20 20 20 19 19 19 19 19 19 19 19 19 19 19 19 19 19 19 19 18 18 18 18 18 18 18 18 18 18 18 18 18 18 18 18 18 18 18 18 18 18 18
20 20 20 20 20 19 19 19 19 19 19 19 19 19 19 19 19 19 19 19 19 18 18 18 18 18 18 18 18 18 19 18 18 18 18 18 18 18 18 18 18 18 18
21 20 20 20 20 20 19 19 19 19 19 19 19 19 19 19 19 19 19 19 19 18 18 18 18 18 19 18 19 19 19 19 18 18 18 18 19 18 18 18 18 18 18
21 20 20 20 19 19 20 19 19 19 19 19 19 19 19 19 19 19 19 19 19 19 18 18 18 18 18 19 19 19 19 19 18 18 18 19 19 19 18 18 18 18 18
21 21 20 20 20 19 19 19 19 19 19 19 19 19 19 19 19 19 19 19 19 19 19 19 19 19 19 19 19 19 19 19 18 19 19 19 19 19 19 18 18 18 18
22 21 21 20 20 20 20 20 19 19 19 19 19 19 19 19 19 19 19 19 19 19 19 19 19 18 18 18 19 19 19 19 19 19 19 19 19 19 19 18 18 18 18
22 22 21 21 21 20 20 20 19 19 19 19 19 19 19 19 19 19 19 19 19 19 18 18 18 18 18 18 19 19 19 19 19 19 19 19 19 19 18 18 18 18 18
22 22 21 21 21 20 20 20 20 20 19 19 19 19 19 19 19 19 19 19 19 19 18 18 18 18 18 18 19 19 19 19 19 19 19 19 19 19 18 18 18 18 18
22 22 21 21 20 20 20 20 20 20 20 20 19 19 19 19 19 19 19 19 19 18 19 18 18 19 19 19 19 19 19 19 19 19 19 19 19 18 18 18 18 18 18
22 22 21 21 20 20 20 20 20 20 20 20 19 19 19 19 19 19 19 19 19 19 19 19 19 19 19 19 19 19 19 19 18 18 19 19 18 18 18 18 18 18 18
22 21 21 21 20 20 20 20 20 20 20 20 19 19 19 19 19 19 19 19 19 19 19 19 19 19 19 19 19 19 19 19 18 18 18 18 18 18 18 18 18 18 18
22 21 21 21 20 20 20 20 20 20 20 19 19 19 19 19 19 19 19 19 19 19 19 19 19 19 19 19 19 19 19 19 19 18 18 18 18 18 18 18 18 18 18
22 21 21 21 20 20 20 20 20 20 20 20 19 19 19 19 19 19 19 19 19 19 19 19 19 19 19 19 19 19 19 19 19 18 18 18 18 18 18 18 18 18 18
22 21 21 21 20 20 20 20 20 20 20 19 19 19 19 19 19 19 19 19 19 19 19 19 19 19 19 19 19 19 19 19 19 19 19 19 19 18 18 18 18 18 18
22 21 21 20 20 20 20 20 20 20 20 19 19 19 19 19 19 19 19 19 19 19 19 19 19 19 19 19 19 19 19 19 19 19 19 19 18 18 18 18 18 18 18
22 21 21 20 20 20 20 20 20 20 20 19 19 19 19 19 19 19 19 19 18 19 18 19 19 19 19 19 19 19 19 19 19 19 19 19 18 18 18 18 18 18 18
22 22 21 21 21 20 20 20 20 20 20 19 19 19 19 19 19 19 19 18 18 18 18 18 18 18 19 19 19 19 19 19 19 19 19 19 19 18 18 18 18 18 18
23 22 21 21 21 20 20 20 20 20 20 19 19 19 19 19 19 19 19 18 18 18 18 18 18 18 18 18 19 19 19 19 19 19 19 19 19 18 18 18 18 18 18
23 22 22 21 21 21 20 20 20 20 20 19 19 19 19 19 19 19 18 18 18 18 18 18 18 18 18 18 18 18 18 19 19 18 18 18 18 18 18 18 18 18 17
24 23 22 21 21 21 21 20 20 20 20 19 19 19 19 19 19 19 18 18 18 18 18 18 18 18 18 18 18 18 18 18 18 18 18 18 18 18 18 18 18 17 17
Wind_Speed
11 12 13 14 13 13 13 12 12 12 12 12 13 13 13 13 14 13 13 13 12 12 11 11 11 11 11 11 11 11 11 10 10 11 11 11 10 10 10 10 9 11 13
14 13 14 14 13 12 12 11 11 11 12 12 13 13 13 13 13 13 12 12 11 11 12 11 11 11 10 10 10 10 9 9 8 9 10 10 9 9 8 8 9 11 12
14 14 14 13 12 12 11 11 10 10 11 11 12 12 12 12 12 11 11 11 11 11 10 10 10 10 10 9 9 8 8 7 7 8 8 8 8 9 10 10 11 11 10
14 14 14 13 12 11 11 10 9 10 10 11 11 11 11 11 10 10 10 10 10 10 9 9 9 9 9 8 7 6 6 5 5 5 5 7 8 11 10 10 10 10 9
14 16 15 14 12 11 11 10 9 10 10 10 11 11 11 10 10 9 9 8 8 9 9 8 8 8 8 7 6 5 4 3 3 3 4 6 8 11 11 10 10 10 9
15 16 15 14 12 12 12 11 10 10 10 10 10 10 10 9 9 8 8 8 7 7 7 7 7 7 7 6 4 3 2 3 3 3 6 8 9 12 11 11 10 9 9
15 15 15 14 13 12 12 11 10 11 11 10 10 10 9 9 8 7 7 7 7 7 7 7 6 6 6 5 3 1 2 3 4 3 5 8 10 12 11 11 10 9 9
15 15 15 15 14 13 12 11 10 11 10 10 9 9 8 7 7 6 7 7 6 6 6 6 6 6 6 4 3 3 4 5 3 3 6 8 11 12 11 10 9 9 8
15 15 14 14 13 13 12 11 10 10 10 9 8 8 7 7 6 6 7 7 7 6 6 6 6 6 5 4 4 4 5 6 5 2 6 9 12 12 10 9 9 8 8
12 12 12 14 14 13 12 11 10 10 10 10 8 8 7 6 6 7 8 8 7 6 6 6 6 6 5 5 5 6 6 5 3 2 7 10 13 11 10 9 8 8 7
11 10 10 11 11 12 13 12 11 9 9 9 8 8 7 5 6 7 9 10 9 8 7 7 7 7 6 6 7 7 5 4 2 4 8 12 12 10 9 8 8 7 7
10 10 9 10 10 9 9 11 9 8 9 7 7 6 5 5 5 6 10 10 10 9 7 7 8 7 7 6 7 7 5 4 3 5 8 13 11 10 9 8 8 7 6
10 9 9 9 8 8 6 6 4 5 7 6 7 4 4 3 4 6 6 7 7 8 6 6 8 7 5 3 3 5 4 2 4 6 9 12 11 9 8 9 8 7 7
10 10 9 9 8 7 5 4 3 3 3 4 6 4 3 2 2 3 3 3 4 4 4 4 3 4 2 2 2 2 2 2 5 7 9 11 10 9 9 9 8 7 7
10 10 10 9 7 5 4 1 3 2 3 5 5 4 3 2 3 2 2 2 2 2 2 2 1 1 1 1 1 1 1 2 4 7 8 10 10 9 8 8 8 7 7
9 9 9 10 8 6 4 2 2 3 3 4 4 4 3 3 2 1 1 1 1 2 2 2 2 1 1 1 1 1 1 2 3 5 9 10 10 9 8 8 8 8 7
9 9 8 9 9 6 5 4 3 2 4 3 4 5 3 3 3 1 1 1 0 1 3 2 2 1 2 2 2 2 2 2 3 4 6 9 9 9 9 9 8 8 7
10 8 7 7 9 6 3 2 2 2 3 3 4 5 4 3 3 1 1 1 1 2 1 2 1 1 1 1 1 2 2 2 3 4 5 7 8 9 9 10 9 8 7
10 8 6 5 8 6 4 2 2 2 2 2 4 4 3 3 2 1 1 0 2 1 1 1 1 1 1 1 2 3 2 2 3 3 3 5 7 8 9 11 11 9 9
11 9 7 6 7 6 4 2 1 2 2 2 4 4 3 2 2 0 1 1 0 0 0 1 1 1 1 2 2 1 2 2 3 3 2 3 5 8 10 10 10 10 10
12 10 8 7 7 5 3 3 3 2 2 2 3 4 3 2 2 1 1 0 0 1 1 1 1 2 2 1 1 1 1 2 3 3 2 1 3 5 7 9 9 8 9
13 11 9 8 8 6 4 3 3 3 2 3 3 3 3 2 1 2 1 0 1 1 1 0 1 1 1 0 0 1 1 1 2 3 3 3 2 2 3 6 7 7 7
13 12 10 9 8 7 6 4 3 3 1 3 3 2 2 2 1 1 1 1 0 1 1 1 1 1 1 1 0 0 0 1 1 1 2 2 2 1 1 3 5 7 7
14 13 11 9 8 7 6 5 6 4 3 3 3 3 2 2 1 2 2 1 1 1 1 1 1 1 1 2 1 0 1 1 1 1 1 1 2 2 2 2 2 4 6
14 14 12 10 9 8 6 6 5 4 3 3 3 4 2 3 2 2 2 1 1 0 1 0 1 1 2 2 2 1 1 0 2 1 1 2 1 2 1 1 1 2 4
14 13 13 11 9 8 7 6 5 4 4 3 3 4 3 2 2 2 2 1 1 1 0 1 1 1 2 2 3 2 1 1 2 1 1 2 2 2 2 1 1 1 3
Wind_Direction
110 112 110 101 98 98 99 101 101 101 102 105 108 109 109 107 107 106 105 103 103 105 109 110 109 107 103 103 103 102 103 101 98 99 101 100 98 100 106 111 107 105 108
116 115 111 104 101 99 99 100 100 100 103 106 108 108 109 108 108 108 107 107 106 106 106 105 104 106 106 107 108 111 114 114 113 114 112 108 107 109 109 104 102 111 112
115 118 112 106 101 99 98 100 101 103 105 107 109 108 108 108 108 110 111 111 111 110 107 106 107 108 110 112 113 116 120 126 134 134 130 120 119 117 113 110 110 117 118
118 118 112 108 102 100 100 101 101 106 109 110 112 112 112 111 111 115 116 117 117 117 114 112 111 110 115 118 119 124 131 140 153 163 157 129 127 125 125 124 123 126 126
113 113 113 111 106 105 105 102 102 108 112 114 114 115 114 112 112 116 120 122 123 122 119 117 118 117 117 123 127 135 149 175 190 209 129 120 121 133 137 134 133 133 135
114 114 118 115 111 108 105 102 103 109 113 115 115 114 114 112 110 112 115 120 126 127 124 122 122 124 120 124 131 147 192 220 243 200 148 137 133 140 141 140 141 141 141
117 117 123 122 119 114 110 107 106 112 113 114 116 118 118 114 113 115 117 121 129 131 129 128 131 134 127 129 142 194 246 250 245 172 127 122 132 140 142 144 145 145 145
121 119 124 127 125 121 118 114 110 116 117 118 120 122 123 124 125 128 130 127 128 134 136 139 140 144 145 153 182 219 242 262 232 161 127 117 136 142 143 147 150 151 152
126 127 131 136 134 129 126 124 121 122 123 123 126 128 130 134 143 145 146 142 140 138 136 137 145 154 162 180 206 230 247 267 290 149 121 121 138 139 141 146 151 156 158
124 127 134 141 143 142 138 137 135 132 135 135 136 139 142 150 159 159 156 153 147 143 146 154 161 169 177 198 219 239 251 271 262 155 121 129 138 140 144 147 150 155 160
122 128 135 137 142 143 141 141 146 144 147 147 150 156 160 161 158 164 145 153 156 160 168 173 177 182 191 208 223 233 245 241 191 122 115 135 143 147 151 154 157 161 164
128 128 129 129 130 134 130 138 152 153 150 157 143 153 171 161 154 137 145 162 166 170 177 187 194 199 209 208 210 220 229 218 152 114 123 140 146 151 154 158 161 162 167
130 127 125 122 118 114 109 128 131 138 143 152 140 155 151 138 130 124 144 159 176 181 186 184 198 211 213 188 173 195 214 186 132 120 133 145 151 157 159 160 162 166 171
128 125 123 115 104 95 98 109 128 132 145 141 138 150 140 125 114 127 139 158 180 176 180 189 195 197 189 195 199 195 208 154 130 121 140 151 152 156 158 160 166 170 176
130 127 117 111 106 102 95 111 132 140 141 132 131 126 122 120 113 119 121 159 176 157 176 192 186 197 212 221 218 178 186 113 124 130 143 152 150 152 156 161 168 172 176
131 126 124 125 127 134 142 146 157 155 139 128 132 138 129 122 111 100 114 153 159 174 178 191 199 204 226 197 206 157 173 132 137 144 148 156 163 163 163 165 172 176 178
136 132 136 144 139 153 160 171 160 160 142 130 128 123 131 125 120 123 130 168 197 224 179 192 216 209 207 201 195 173 180 165 150 147 154 164 166 174 174 171 170 175 182
144 143 160 153 143 151 153 171 150 136 121 125 131 125 124 113 116 149 157 170 223 227 204 193 185 225 217 198 178 184 178 156 165 167 175 172 169 171 176 179 177 178 182
146 149 159 139 144 150 155 165 159 129 117 127 118 112 118 126 124 174 166 206 237 213 204 231 126 228 238 241 201 185 186 171 177 174 182 175 170 165 166 181 185 187 191
148 152 156 150 144 148 158 160 137 118 139 124 113 112 122 131 119 177 204 209 289 64 41 23 7 269 224 251 256 167 182 184 181 178 194 177 170 173 173 170 179 192 197
155 157 161 162 151 159 169 173 163 159 159 125 123 124 130 145 149 199 360 120 134 73 46 20 357 276 245 218 268 222 197 202 181 173 167 189 185 174 166 166 177 181 188
161 161 163 168 162 174 172 173 168 153 166 128 105 129 146 136 128 134 103 358 74 119 138 78 272 288 285 163 253 270 205 206 224 184 162 190 197 182 171 180 181 175 174
165 170 174 171 166 178 170 171 164 140 140 120 134 148 151 132 144 91 108 64 54 176 145 208 259 279 285 274 219 4 355 2 287 196 186 180 167 192 207 186 183 180 181
171 171 167 166 166 172 178 178 173 171 170 154 152 147 152 154 159 126 112 102 25 24 83 254 117 292 286 292 278 141 211 121 303 311 277 174 164 196 237 235 198 176 174
173 170 166 162 165 169 181 182 186 174 166 153 142 138 166 160 155 132 120 121 130 78 105 322 46 330 317 312 320 308 305 236 264 251 283 271 233 200 189 223 234 159 151
173 168 166 162 165 170 183 181 184 179 169 159 155 157 182 163 163 148 134 129 133 115 29 22 46 311 327 332 330 327 328 299 292 288 269 264 258 234 189 190 213 187 175
Height
1506 1506 1507 1508 1508 1510 1511 1512 1514 1515 1517 1518 1519 1520 1522 1524 1526 1527 1528 1530 1531 1533 1535 1536 1537 1538 1540 1542 1543 1545 1546 1547 1548 1550 1551 1552 1553 1554 1555 1555 1556 1558 1559
1507 1508 1509 1510 1511 1512 1513 1515 1516 1517 1518 1520 1521 1522 1524 1526 1527 1529 1531 1532 1533 1534 1536 1537 1538 1540 1541 1543 1544 1546 1547 1548 1550 1551 1552 1553 1554 1554 1555 1556 1557 1558 1559
1508 1510 1510 1511 1513 1514 1515 1517 1518 1519 1520 1522 1523 1524 1526 1528 1529 1531 1532 1534 1535 1536 1537 1538 1540 1541 1542 1544 1545 1547 1548 1549 1551 1552 1553 1553 1554 1555 1556 1557 1558 1559 1560
1510 1511 1512 1513 1514 1515 1517 1518 1519 1520 1522 1523 1525 1526 1528 1530 1531 1532 1534 1535 1536 1537 1538 1539 1541 1542 1543 1545 1546 1548 1549 1550 1551 1553 1554 1554 1555 1556 1557 1557 1558 1560 1561
1512 1513 1514 1515 1516 1517 1518 1519 1521 1522 1523 1525 1526 1528 1529 1531 1532 1534 1535 1536 1537 1538 1539 1540 1542 1543 1544 1545 1547 1549 1550 1551 1552 1553 1554 1555 1556 1556 1557 1558 1559 1560 1561
1514 1515 1516 1517 1518 1518 1520 1521 1522 1523 1525 1526 1528 1529 1531 1532 1534 1535 1536 1537 1538 1539 1541 1541 1543 1544 1545 1547 1548 1549 1551 1552 1553 1554 1555 1556 1557 1557 1558 1559 1560 1561 1562
1516 1516 1518 1519 1520 1521 1522 1523 1524 1525 1526 1528 1529 1531 1532 1534 1535 1536 1537 1538 1539 1540 1541 1542 1543 1545 1546 1547 1549 1550 1551 1553 1554 1555 1556 1556 1557 1558 1558 1559 1560 1561 1562
1517 1518 1519 1521 1522 1523 1524 1525 1526 1526 1528 1530 1531 1533 1534 1535 1536 1537 1538 1539 1540 1541 1542 1543 1544 1546 1547 1548 1550 1551 1552 1553 1555 1556 1556 1556 1557 1558 1558 1559 1560 1561 1562
1518 1520 1521 1523 1524 1526 1526 1527 1528 1529 1530 1531 1533 1534 1535 1536 1537 1538 1539 1540 1541 1542 1543 1544 1545 1547 1548 1550 1551 1552 1553 1554 1555 1556 1556 1556 1557 1558 1558 1559 1560 1561 1562
1519 1522 1524 1525 1526 1527 1529 1529 1530 1531 1532 1533 1535 1536 1537 1538 1539 1539 1540 1541 1542 1543 1544 1545 1546 1548 1549 1550 1552 1553 1554 1554 1555 1556 1556 1557 1557 1558 1558 1559 1559 1560 1561
1522 1525 1526 1527 1529 1530 1531 1532 1532 1533 1534 1535 1536 1537 1538 1539 1540 1540 1542 1543 1544 1544 1545 1546 1548 1549 1550 1551 1552 1553 1554 1555 1555 1556 1556 1557 1557 1557 1558 1558 1559 1560 1561
1525 1527 1528 1530 1531 1533 1534 1534 1535 1535 1536 1537 1538 1539 1540 1541 1541 1542 1543 1544 1545 1546 1546 1548 1549 1550 1551 1552 1553 1554 1554 1555 1555 1556 1556 1556 1557 1557 1557 1558 1558 1559 1560
1526 1528 1530 1531 1533 1534 1536 1537 1537 1538 1538 1539 1540 1541 1541 1542 1543 1543 1544 1545 1546 1546 1547 1548 1549 1550 1551 1553 1554 1554 1555 1555 1555 1555 1556 1556 1556 1557 1557 1557 1558 1559 1559
1527 1529 1531 1532 1533 1535 1536 1538 1539 1539 1540 1541 1541 1542 1543 1543 1544 1545 1545 1545 1546 1547 1548 1549 1550 1550 1552 1553 1554 1554 1555 1555 1555 1555 1555 1556 1556 1556 1557 1557 1558 1558 1559
1528 1530 1531 1533 1534 1535 1537 1538 1540 1541 1541 1542 1542 1543 1544 1544 1545 1546 1546 1547 1547 1548 1549 1550 1550 1551 1552 1553 1553 1554 1554 1555 1555 1555 1555 1555 1556 1556 1556 1557 1557 1558 1558
1529 1531 1532 1533 1534 1536 1537 1539 1540 1541 1542 1542 1543 1543 1544 1545 1545 1546 1547 1547 1548 1549 1549 1550 1550 1551 1552 1552 1553 1553 1554 1554 1555 1555 1555 1555 1555 1556 1556 1556 1557 1557 1557
1529 1531 1532 1534 1535 1536 1538 1539 1541 1541 1542 1543 1543 1544 1544 1545 1546 1546 1547 1548 1548 1549 1549 1550 1550 1551 1551 1552 1552 1553 1553 1554 1554 1555 1555 1555 1555 1555 1556 1556 1556 1556 1557
1528 1530 1532 1534 1535 1536 1538 1539 1541 1542 1543 1543 1544 1544 1544 1545 1545 1546 1547 1547 1548 1548 1549 1549 1550 1550 1551 1551 1552 1552 1553 1553 1554 1554 1554 1554 1554 1554 1555 1555 1556 1556 1556
1527 1529 1532 1533 1534 1536 1538 1539 1541 1542 1543 1543 1544 1544 1544 1545 1545 1545 1546 1547 1548 1548 1548 1549 1549 1550 1551 1551 1551 1552 1552 1553 1553 1553 1553 1554 1554 1554 1554 1555 1555 1555 1555
1526 1528 1531 1533 1534 1536 1537 1539 1540 1542 1543 1543 1543 1544 1544 1545 1545 1545 1546 1547 1547 1548 1548 1549 1549 1550 1550 1550 1551 1551 1551 1552 1552 1552 1553 1553 1553 1553 1553 1554 1554 1554 1554
1525 1527 1529 1531 1533 1535 1536 1538 1539 1541 1542 1543 1543 1544 1544 1545 1545 1546 1546 1546 1547 1547 1547 1548 1549 1549 1549 1550 1550 1550 1551 1551 1551 1551 1552 1552 1553 1553 1553 1552 1553 1553 1553
1523 1525 1528 1530 1532 1533 1535 1537 1539 1540 1541 1542 1543 1543 1544 1545 1545 1546 1545 1546 1546 1546 1547 1547 1548 1548 1549 1550 1550 1550 1550 1551 1550 1551 1551 1551 1552 1552 1552 1552 1552 1552 1552
1521 1523 1526 1528 1530 1532 1534 1536 1538 1540 1541 1542 1542 1543 1544 1544 1544 1545 1545 1545 1545 1546 1546 1547 1547 1548 1548 1549 1550 1550 1550 1549 1550 1550 1550 1550 1550 1550 1551 1551 1551 1550 1550
1519 1521 1523 1526 1528 1530 1533 1535 1537 1538 1540 1541 1541 1542 1543 1543 1544 1545 1545 1545 1545 1545 1546 1546 1547 1547 1548 1548 1549 1549 1549 1549 1549 1549 1549 1549 1548 1548 1548 1549 1549 1548 1548
1517 1519 1521 1524 1526 1529 1531 1533 1535 1537 1539 1540 1541 1541 1542 1543 1543 1543 1544 1544 1544 1544 1545 1545 1546 1546 1547 1547 1547 1548 1548 1548 1548 1549 1548 1548 1547 1547 1546 1546 1546 1546 1546
1514 1517 1519 1521 1524 1526 1529 1531 1533 1535 1537 1538 1539 1540 1541 1542 1542 1542 1543 1543 1543 1543 1544 1544 1544 1545 1545 1546 1546 1547 1547 1547 1547 1547 1546 1546 1546 1545 1544 1544 1544 1544 1544